Showing default

JACKAL-01, 59127

Orbit data source: Space-Track

JACKAL-01, 59127 is a payload satellite owned by True Anomaly (US) in SSO that was launched on Mon, 04 Mar 2024 UTC via an FALCON 9 launch vehicle from the Air Force Western Test Range (AFWTR). Payload-class satellites include a variety of spacecraft equipped with specific instruments for various scientific and technological missions. These include communications satellites like Starlink; space stations such as the ISS; scientific satellites like the Hubble; Earth observation satellites from companies like Planet Labs, Umbra, and HawkEye 360; GPS; miniature CubeSats for education and research; and military/defense satellites.

Loading next visibility...
Identifier
59127, 2024-043AF
Orbit
SSO
Last TLE update
21 hours ago
Origin
Manufacturer
True Anomaly
Mission
Operational Defense Technology
Bus & Motor
JACKAL, Unknown motor
Mass
275 kg wet, 275 kg dry
Launch date (UTC)
2024-03-04 (1 year ago)
Launch vehicle
FALCON 9
Launch site
Air Force Western Test Range (AFWTR)
Object type
Payload
Rocket body
Debris
Shape & HBR
Box + 4 Pan, 0.3 m
Radar Cross Section
0.080 m², Medium (>0.1 m² and < 1m²)

Expand to show TLE details & history

TLE from 21 hours ago
0 JACKAL-01
1 59127U 24043AF  25181.89993569  .00007354  00000-0  23846-3 0  9997
2 59127  97.5155 312.4885 0009891  43.6678 316.5344 15.32244465 73552
Epoch: 2025-06-30T21:35Z
TLE epoch observation values (Epoch: 2025-06-30T21:35:54.443Z)
Latitude
-0.00007°
Longitude
69.30855°
Altitude
467.308 km
Speed
7.635 km/s
True Right ascension
20h 49m 57s
True Declination
0° 00' 00"
Sunlit
Object was in full shadow at epoch
Visualization orbit readout
Latitude
31.12523°
Longitude
65.63202°
Altitude
466.479 km
Speed
7.64 km/s
Apparent Right ascension
19h 18m 42s
Apparent Declination
-3° 08' 41"
Sunlit
Object is in full shadow
Visualization observer readout
Local Sidereal Time
05:46:16
Azimuth
324.396° NNW
Elevation
-47.697°
Doppler factor
1
Orbital elements
Apogee altitude
472.841 km
Perigee altitude
459.302 km
Semi-major axis
6,844.209 km
Eccentricity
0.00099
Inclination
97.5155°
RAAN
312.4885°
Arg. of periapsis
43.6678°
True anomaly
Unknown
Mean anomaly
316.5344°
Eccentric anomaly
Unknown
Mean motion
3.83317 °/min
Orbital period
93.92 mins
BSTAR
0.00023846
Loading maneuver chart data...
Loading SW <> Apogee altitude chart data...
Loading historical data...
Loading historical data...
Loading historical data...
Loading historical data...
Loading historical data...
Loading historical data...
Loading historical data...

JACKAL-01 Visibility forecast

Observer location: undefined°, undefined°

Span
Click to sort rows by Start time (UTC) header in descending order
Start Az.
Max El. time (UTC)
Max El. Az.
Max El.
End time (UTC)
End Az.
6 mins2025-07-01 21:39:34.335Z9.436° NNE2025-07-01 21:42:34.335Z340.459° N43.411°2025-07-01 21:45:34.335Z197.56° SSW
4 mins2025-07-02 08:14:34.335Z107.396° ESE2025-07-02 08:15:34.335Z76.483° E26.552°2025-07-02 08:18:34.335Z11.014° NNE
|